AD2TM Weather Reports


Display with metric or nautical units.
time (UTC)temp
F
wind
direction
speed
MPH
gust
MPH
rain 1hr
in
rain 24hr
in
rain mn
in
humidity
%
barometer
mb
20260504080330 39 125 1.0 4.0 0.00 0.00 0.00 81 1006.9
20260504070321 39 88 2.0 3.0 0.00 0.00 0.00 83 1006.8
20260504050330 45 135 1.0 2.0 0.00 0.00 0.00 78 1007.1
20260504044820 45 109 1.0 2.0 0.00 0.00 0.00 79 1007.0
20260504043335 46 109 0.0 2.0 0.00 0.00 0.00 79 1007.2
20260504041826 46 120 1.0 2.0 0.00 0.00 0.00 78 1007.2
20260504040321 47 118 1.0 2.0 0.00 0.00 0.00 76 1007.3
20260504034832 48 120 1.0 3.0 0.00 0.00 0.00 73 1007.4
20260504033327 49 105 2.0 4.0 0.00 0.00 0.00 65 1007.5
20260504031839 50 322 1.0 4.0 0.00 0.00 0.00 63 1007.8
20260504030329 49 276 5.0 11.0 0.00 0.00 0.00 64 1007.9
20260504024823 48 304 2.0 3.0 0.00 0.00 0.00 73 1007.9
20260504023335 49 304 2.0 3.0 0.00 0.00 0.00 69 1007.8
20260504021829 50 266 2.0 7.0 0.00 0.00 0.00 62 1007.9
20260504020318 49 257 1.0 5.0 0.00 0.00 0.00 64 1007.9
20260504014837 48 166 0.0 5.0 0.00 0.00 0.00 65 1007.9
20260504013328 49 150 1.0 3.0 0.00 0.00 0.00 66 1007.9
20260504011818 49 240 2.0 7.0 0.00 0.00 0.00 63 1007.8
20260504010333 50 289 1.0 8.0 0.00 0.00 0.00 61 1007.7
20260504004824 50 344 4.0 12.0 0.00 0.00 0.00 60 1007.9
20260504003319 50 286 5.0 11.0 0.00 0.00 0.00 59 1007.7
20260504001830 47 292 1.0 2.0 0.00 0.00 0.00 69 1007.4
20260504000325 48 309 1.0 4.0 0.00 0.00 0.00 69 1007.1
20260503234836 49 276 1.0 4.0 0.00 0.00 0.00 62 1006.8
20260503233327 51 273 1.0 5.0 0.00 0.00 0.00 58 1006.8
20260503231822 51 294 3.0 5.0 0.00 0.00 0.00 53 1006.8
20260503230332 52 281 4.0 12.0 0.00 0.00 0.00 52 1006.7
20260503224828 53 325 5.0 13.0 0.00 0.00 0.00 50 1006.8
20260503223321 53 309 9.0 18.0 0.00 0.00 0.00 52 1006.9
20260503221820 52 290 4.0 20.0 0.00 0.00 0.00 53 1006.9
20260503220330 52 252 4.0 15.0 0.00 0.00 0.00 53 1007.0
20260503214824 52 321 5.0 11.0 0.00 0.00 0.00 54 1007.0
20260503213333 51 299 9.0 19.0 0.00 0.00 0.00 54 1006.9
20260503211827 51 309 4.0 16.0 0.00 0.00 0.00 55 1007.1
20260503210322 51 312 7.0 15.0 0.00 0.00 0.00 54 1006.8
20260503204836 51 240 6.0 20.0 0.00 0.00 0.00 52 1006.8
20260503203331 52 304 3.0 14.0 0.00 0.00 0.00 51 1006.9
20260503201825 52 270 6.0 14.0 0.00 0.00 0.00 50 1006.8
20260503200320 51 263 3.0 11.0 0.00 0.00 0.00 50 1006.9
20260503194831 52 294 9.0 14.0 0.00 0.00 0.00 48 1007.1
20260503193320 51 286 8.0 18.0 0.00 0.00 0.00 45 1007.4
20260503191838 52 315 10.0 20.0 0.00 0.00 0.00 46 1007.4
20260503190329 52 285 7.0 13.0 0.00 0.00 0.00 43 1007.7
20260503184826 53 308 4.0 18.0 0.00 0.00 0.00 46 1007.7
20260503183337 53 304 7.0 17.0 0.00 0.00 0.00 41 1008.0
20260503181832 51 333 7.0 18.0 0.00 0.00 0.00 46 1008.0
20260503180322 51 272 10.0 18.0 0.00 0.00 0.00 44 1008.4
20260503174832 51 287 6.0 14.0 0.00 0.00 0.00 47 1008.4
20260503173326 50 289 8.0 18.0 0.00 0.00 0.00 45 1008.4
20260503171819 48 238 7.0 16.0 0.00 0.00 0.00 46 1008.5
20260503170333 49 338 8.0 18.0 0.00 0.00 0.00 51 1008.6
20260503150333 45 298 4.0 15.0 0.00 0.00 0.00 59 1009.6
20260503130337 42 302 7.0 13.0 0.00 0.00 0.00 65 1009.6
20260503110320 37 290 4.0 8.0 0.00 0.00 0.00 81 1009.2
20260503090321 36 274 3.0 7.0 0.00 0.00 0.00 83 1008.8